Location: G?julap?du
(16.5372°N, 81.0979°E)
Time: 10:51:09
(UTC+00:00)

SPOT 5 - Pass Details

Date: 14 April 2026
Orbit: 618 x 802 km, 98.0° (Epoch: 20 May)

Event Time Altitude Azimuth Distance (km) Brightness Sun altitude
Exits shadow 14:53:08 61° 274° (W) 813 3.2 -29.1°
Drops below altitude 10° 14:57:34 10° 340° (NNW) 2,149 5.8 -30.0°
Sets 14:59:47 0° 343° (NNW) 3,038 6.6 -30.5°
